OPS 4682 DEB, 1316

Orbit data source: Space-Track

OPS 4682 DEB, 1316 is space debris in LEO originally from a launch on Sat, 03 Apr 1965 UTC launched from the Air Force Western Test Range (AFWTR). Debris objects in space refer to the collection of defunct objects orbiting the Earth. Examples of debris include non-operational satellites, rocket bodies, and fragments generated from explosions, collisions, or faulty payload assembly.

Loading next visibility...
Identifier
1316, 1965-027C
Orbit
LEO
Country
Flag of USUS
Related business
Manufacturer
Unknown
Mission
Spacecraft
Bus & Motor
Unknown
Mass
7 kg wet, 7 kg dry
Launch date (UTC)
1965-04-03 (61 years ago)
Launch vehicle
Unknown
Launch site
Air Force Western Test Range (AFWTR)
Object type
Payload
Rocket body
Debris
Shape & HBR
Unknown
Radar Cross Section
Medium (>0.1 m² and <1 m²)

Expand to show TLE details & history
Last TLE update: 7 hours ago

TLE from 7 hours ago
0 OPS 4682 DEB
1  1316U 65027C   25308.45340044  .00001187  00000-0  28316-2 0  9992
2  1316  90.2572  21.9316 0034812  86.7715 273.7402 13.22133123889306
Epoch: 2025-11-04T10:52Z
TLE epoch observation values (Epoch: 2025-11-04T10:52:53.798Z)
Latitude
0.00003°
Longitude
174.76724°
Altitude
1,177.871 km
Speed
7.265 km/s
True Right ascension
01h 27m 43s
True Declination
0° 00' 00"
Sunlit
Object was in full shadow at epoch
Visualization orbit readout
Latitude
Unknown
Longitude
Unknown
Altitude
Unknown
Speed
Unknown
Apparent Right ascension
Unknown
Apparent Declination
Unknown
Sunlit
N/A
Visualization observer readout
Local Sidereal Time
14:18:41
Azimuth
Unknown
Elevation
Unknown
Doppler factor
Unknown
Orbital elements
Apogee altitude
1,199.963 km
Perigee altitude
1,147.385 km
Semi-major axis
7,551.811 km
Eccentricity
0.00348
Inclination
90.2572°
RAAN
21.9316°
Arg. of periapsis
86.7715°
True anomaly
273.34202°
Mean anomaly
273.7402°
Eccentric anomaly
273.54112°
Mean motion
3.30725 °/min
Orbital period
108.85 mins
BSTAR
0.0028316
Loading maneuver chart data...
Computing Atmospheric mass density...
Loading historical data...
Loading historical data...
Loading historical data...
Loading historical data...
Loading historical data...
Loading historical data...
Loading historical data...

Documentation

Showing up to 5 results
|